Regional Weather Roundup
Issued by NWS

Home | Current Version | Previous Version | Text Only | Print | Product List | Glossary On
Versions: 1 2 3 4 5 6 7 8 9 10 11 12 13 14 15 16 17 18 19 20 21 22 23 24 25 26 27 28 29 30 31 32 33 34 35 36 37 38 39 40 41 42 43 44 45 46 47 48 49 50
000
ASHW40 PHFO 221243
RWRHI

WEATHER ROUNDUP FOR HAWAII
NATIONAL WEATHER SERVICE HONOLULU HI
200 AM HST WED OCT 22 2014

THIS IS AN AUTOMATED REPORT THAT HAS NOT BEEN QUALITY CONTROLLED.

NOTE..."FAIR" INDICATES FEW OR NO CLOUDS BELOW 12,000 FEET WITH NO
SIGNIFICANT WEATHER AND/OR OBSTRUCTIONS TO VISIBILITY.

* - THESE SITES REPORT LIMITED FIELDS

HIZ001>004-221300-
KAUAI-NIIHAU-

CITY           SKY/WX    TMP DP  RH WIND       PRES   REMARKS
LIHUE APT      CLOUDY    79  73  82 SE10      29.99F
PORT ALLEN*      N/A     77 N/A N/A NE8         N/A
POIPU*           N/A     79 N/A N/A NE5G10      N/A
PRINCEVILLE*     N/A     75 N/A N/A MISG        N/A
KOKOLE POINT*    N/A     73 N/A N/A MISG        N/A
MOLOAA DAIRY*  NOT AVBL
WAIMEA HTS*      N/A     73  68  83 NE2G9       N/A
PUU OPAE*        N/A     70  64  83 E1G8        N/A
PUU LUA*       NOT AVBL
MAKAHA RIDGE*  NOT AVBL
$$

HIZ005>011-221300-
OAHU-

CITY           SKY/WX    TMP DP  RH WIND       PRES   REMARKS
HONOLULU       PTCLDY    77  73  87 N3        29.98F
KALAELOA       CLOUDY    73  72  94 CALM      29.99F
KANEOHE MCB    MOCLDY    79  73  82 E3        29.99F
WHEELER FIELD  FAIR      72  69  91 CALM      30.01
BELLOWS*         N/A    N/A N/A N/A E12         N/A
KAHUKU*          N/A    N/A N/A N/A E6          N/A
WHEELER*       NOT AVBL
WAIANAE HARBOR NOT AVBL
DILLINGHAM*      N/A     70  68  94 CALM        N/A
KAHUKU TRN*      N/A     73  72  94 E3G14       N/A
KAWAILOA*        N/A     72  70  94 SE1         N/A
KII*             N/A     79  73  83 E12G17      N/A
MAKUA RANGE*     N/A     75  72  88 E6          N/A
OAHU FOREST NW   N/A     70  70 100 W1G22       N/A
SCHOFIELD BRK*   N/A     70  68  94 MISG        N/A
SCHOFIELD S*   NOT AVBL
WAIANAE VLY*     N/A     72  68  88 N2          N/A
KUAOKALA*        N/A     75  70  83 CALM        N/A
HONOULIUULI*   NOT AVBL
MOKUOLOE IS*     N/A    N/A N/A N/A MISG        N/A
PALEHUA*         N/A     82  73  74 CALM        N/A
WAIAWA PHB*    NOT AVBL
$$

HIZ012>013-221300-
MOLOKAI-

CITY           SKY/WX    TMP DP  RH WIND       PRES   REMARKS
MOLOKAI AIRPT  PTCLDY    76  74  93 NE3       30.00F
KALAUPAPA      NOT AVBL
MAKAPULAPAI*     N/A     75  73  94 SE7G16      N/A
MOLOKAI 1*       N/A     68  68 100 NE2         N/A
PUU ALII*        N/A     63  63  99 SE2G9       N/A
$$

HIZ016-221300-
KAHOOLAWE-

CITY           SKY/WX    TMP DP  RH WIND       PRES   REMARKS
KAHOOLAWE*       N/A     72 N/A N/A E12         N/A
HAKIOAWA*      NOT AVBL
HONOKANAIA*      N/A     76  69  78 VRB6G13   29.99
KANELOA*         N/A     77  72  83 NE13G22   29.22S
KEALIALALO*    NOT AVBL
LUA MAKIKA*    NOT AVBL
$$

HIZ014>015-221300-
LANAI-

CITY           SKY/WX    TMP DP  RH WIND       PRES   REMARKS
LANAI CITY       N/A    N/A N/A N/A MISG        N/A
LANAI 1*         N/A     72  72 100 NE9         N/A
$$

HIZ017>028-221300-
MAUI-

CITY           SKY/WX    TMP DP  RH WIND       PRES   REMARKS
KAHULUI        PTCLDY    74  70  87 SE6       29.98F
KAPALUA-W MAUI NOT AVBL
HANA AIRPORT   MOCLDY    73  72  94 CALM      30.00F
HANA*            N/A     75 N/A N/A S3          N/A
HALEAKALA SUMM   N/A     48  36  61 E10         N/A
MAALAEA BAY*   NOT AVBL
HALEAKALA*     NOT AVBL
KAUPO GAP*       N/A     63  59  88 CALM        N/A
KULA 1*          N/A     53  44  71 E1          N/A
$$

HIZ023>026-221300-
BIG ISLAND OF HAWAII COAST AND LOWER SLOPES-

CITY           SKY/WX    TMP DP  RH WIND       PRES   REMARKS
KAILUA KONA    PTCLDY    78  71  79 E5        29.97S
HILO           CLOUDY    72  67  84 SW5       29.99F
HONOKAA*       NOT AVBL
KAWAIHAE MWT*    N/A     79 N/A N/A NE5         N/A
KAWAIHAE*        N/A     79 N/A N/A N3          N/A
SOUTH POINT*     N/A     70 N/A N/A NE9         N/A
UPOLU AIRPORT*   N/A    N/A N/A N/A SE5         N/A
KAMUELA*       CLOUDY    63  61  94 CALM      30.10S
HAKALAU*         N/A     53  48  83 SW6         N/A
KALOKO-HONOKO*   N/A     77  72  83 NE5       29.96S
PALI 2*          N/A     64 -11   4 VRB7        N/A
KEALAKOMO*       N/A     77  68  73 N5          N/A
KAUPULEHU*       N/A     70  64  83 SE7         N/A
KAPAPALA*        N/A     64  59  84 CALM        N/A
LOWER KAHUKU*  NOT AVBL
PUHE CS*       NOT AVBL
PUHO CS*         N/A     75  68  77 NE3         N/A
PTA KEAMUKU*     N/A     61  57  88 S8          N/A
WAIKOLOA*        N/A     70  63  78 SE7         N/A
$$

HIZ027>028-221300-
BIG ISLAND OF HAWAII INTERIOR AND SUMMMITS-

CITY           SKY/WX    TMP DP  RH WIND       PRES   REMARKS
BRADSHAW FIELD CLOUDY    51  42  71 E5        30.34F
MK VISITOR CEN NOT AVBL
MAUNA KEA*       N/A     36  10  35 E8          N/A  WCI  29
MAUNA LOA*       N/A     43  10  26 MISG        N/A
MAUNA LOA 1*     N/A    N/A N/A N/A MISG        N/A
PTA KIPUKA*      N/A     55  54  94 SE6         N/A
PTA RANGE 17*    N/A     54  48  82 E6          N/A
PTA WEST*        N/A     55  54  94 SE9         N/A
NENE CABIN*    NOT AVBL
AHUMOA*          N/A     53  47  81 E6          N/A
PTA PORTABLE*  NOT AVBL
PUU MALI*      NOT AVBL
$$

HIC003-221300-
NORTHWEST ISLANDS-

CITY           SKY/WX    TMP DP  RH WIND       PRES   REMARKS
MIDWAY ISLAND  CLEAR     81  75  83 S9        29.96F
MIDWAY NOS*    NOT AVBL
FRENCH FRIGATE NOT AVBL
$$

PHZ110>124-180-221300-
BUOY REPORTS

STATION/POSITION TIME  TEMP    WIND        PRES    WAVE   SWELL
                       AIR SEA DIR/SP/G            HT/PER HT/DIR
                 (UTC) (F)     (DEG/KT/KT) (MB)    (FT/S) (FT/D)
BUOY 51001       NOT AVBL
BUOY 51101       NOT AVBL
BUOY 51100       1200   78     100/ 10     1016.7
BUOY 51003       1200   81 82  130/ 16/ 17 1014.7F   7/12   5
BUOY 51004       1132   80 81   70/ 14/ 17 1014.1F   7/12   5/320
BARBERS PT BUOY  NOT AVBL
WAIMEA BAY BUOY  1200      82                N/A     5/12   3/350
KAILUA BAY BUOY  1200      82                N/A     7/12   3/360
LANAI BUOY       1200      82                N/A     3/13   2/200
BARBERS PT 2     1200      81                N/A     4/12   2/200
PAUWELA MAUI     1200      81                N/A     6/12   3/350
HILO             1200      81                N/A     7/13   5/360
KANEOHE BAY BUOY NOT AVBL
HANALEI KAUAI    NOT AVBL
KAHULUI HARBOR   1200   75 81  100/  1/  2 1014.9F
HONOLULU HARBOR  1200   78     340/  2/  3 1015.6F
KILO NALU        NOT AVBL
HILO HARBOR      1200   74     190/  3/  4 1015.0F
MOKUOLOE         1200      82              1015.5F
NAWILIWILI       1200      82                N/A
WHOTS BUOY       NOT AVBL
BUOY 51028       NOT AVBL
$$

......................KEY........................................
  SKY/WX - SKY CONDITIONS/PRESENT WEATHER
  TMP    - TEMPERATURE IN FAHRENHEIT
  DWPT   - DEWPOINT IN FAHRENHEIT
  RH     - RELATIVE HUMIDITY IN PERCENT
  WIND   - DIRECTION AND SPEED /MPH FOR ISLANDS...KTS FOR BUOYS/
  PRES   - MEAN SEA LEVEL PRESSURE IN INCHES OF HG
  VSB    - VISIBILITY IN MILES
  HX     - HEAT INDEX
  WCI    - WIND CHILL INDEX
  VRB    - VARIABLE WIND DIRECTION
  N/A    - NOT AVAILABLE



USA.gov is the U.S. government's official web portal to all federal, state and local government web resources and services.